PAL2880 RPVM-RPLL

Flight info

Callsign PAL2880
Flight time 0h 53m
Altitude 30000
Route MULOP4P MULOP W11 CONDE CONDE3R
Aircraft A320/M-SDE3FGHIRWY/LB1

Departure

Time 2026-05-07 16:02
Airport Mactan Cebu International Airport (RPVM)

Arrival

Time 2026-05-07 16:55
Airport Ninoy Aquino International Airport (RPLL)
Time Latitude Longitude Altitude Speed Heading
2026-05-07 15:45 10.31508 123.97926 47 ft 0 kts 315°
2026-05-07 15:51 10.31479 123.97955 46 ft 2 kts 315°
2026-05-07 15:51 10.31468 123.97966 46 ft 2 kts 315°
2026-05-07 15:51 10.31461 123.97973 46 ft 2 kts 316°
2026-05-07 15:51 10.31455 123.97987 46 ft 2 kts 269°
2026-05-07 15:52 10.31459 123.98000 45 ft 1 kts 231°
2026-05-07 15:52 10.31463 123.98005 45 ft 1 kts 220°
2026-05-07 15:52 10.31466 123.98007 45 ft 0 kts 224°
2026-05-07 15:55 10.31463 123.98004 45 ft 1 kts 224°
2026-05-07 15:55 10.31457 123.97998 45 ft 1 kts 226°
2026-05-07 15:55 10.31443 123.97984 46 ft 4 kts 226°
2026-05-07 15:55 10.31411 123.97951 46 ft 8 kts 225°
2026-05-07 15:56 10.31377 123.97916 47 ft 5 kts 225°
2026-05-07 15:56 10.31337 123.97898 46 ft 7 kts 172°
2026-05-07 15:56 10.31287 123.97935 44 ft 11 kts 137°
2026-05-07 15:56 10.31225 123.97982 41 ft 9 kts 175°
2026-05-07 15:57 10.31165 123.97943 40 ft 11 kts 226°
2026-05-07 15:57 10.31106 123.97886 41 ft 11 kts 223°
2026-05-07 15:57 10.31047 123.97827 41 ft 12 kts 226°
2026-05-07 15:57 10.30985 123.97764 41 ft 13 kts 224°
2026-05-07 15:58 10.30900 123.97678 38 ft 20 kts 224°
2026-05-07 15:58 10.30789 123.97566 32 ft 25 kts 225°
2026-05-07 15:58 10.30658 123.97435 28 ft 26 kts 225°
2026-05-07 15:58 10.30527 123.97304 26 ft 26 kts 225°
2026-05-07 15:59 10.30398 123.97174 25 ft 25 kts 225°
2026-05-07 15:59 10.30270 123.97045 23 ft 25 kts 225°
2026-05-07 15:59 10.30147 123.96923 25 ft 23 kts 225°
2026-05-07 15:59 10.30035 123.96810 28 ft 21 kts 225°
2026-05-07 16:00 10.29947 123.96722 30 ft 11 kts 224°
2026-05-07 16:00 10.29884 123.96711 31 ft 10 kts 149°
2026-05-07 16:00 10.29826 123.96764 30 ft 11 kts 135°
2026-05-07 16:00 10.29764 123.96828 28 ft 14 kts 134°
2026-05-07 16:01 10.29713 123.96889 27 ft 6 kts 84°
2026-05-07 16:01 10.29741 123.96925 25 ft 8 kts 45°
2026-05-07 16:01 10.29926 123.97109 22 ft 73 kts 45°
2026-05-07 16:01 10.30453 123.97639 28 ft 136 kts 45°
2026-05-07 16:02 10.31217 123.98402 264 ft 164 kts 45°
2026-05-07 16:02 10.32034 123.99221 889 ft 166 kts 46°
2026-05-07 16:02 10.32830 124.00028 1562 ft 165 kts 48°
2026-05-07 16:02 10.33674 124.00887 1976 ft 181 kts 48°
2026-05-07 16:03 10.34610 124.01839 2335 ft 202 kts 46°
2026-05-07 16:03 10.35909 124.02550 2682 ft 233 kts 12°
2026-05-07 16:03 10.37627 124.02304 3149 ft 262 kts 345°
2026-05-07 16:03 10.39370 124.01623 3799 ft 274 kts 343°
2026-05-07 16:04 10.41138 124.00923 4649 ft 275 kts 343°
2026-05-07 16:04 10.42917 124.00245 5633 ft 271 kts 345°
2026-05-07 16:04 10.44685 123.99598 6438 ft 274 kts 345°
2026-05-07 16:04 10.46477 123.98883 7212 ft 281 kts 334°
2026-05-07 16:05 10.48056 123.97689 7980 ft 289 kts 322°
2026-05-07 16:05 10.49521 123.96307 8754 ft 292 kts 320°
2026-05-07 16:05 10.51019 123.94891 9511 ft 295 kts 321°
2026-05-07 16:05 10.52538 123.93507 10241 ft 297 kts 322°
2026-05-07 16:06 10.54110 123.92123 10972 ft 299 kts 323°
2026-05-07 16:06 10.55683 123.90762 11681 ft 301 kts 323°
2026-05-07 16:06 10.57297 123.89374 12377 ft 303 kts 323°
2026-05-07 16:06 10.58902 123.88000 13024 ft 306 kts 323°
2026-05-07 16:07 10.60547 123.86590 13665 ft 310 kts 323°
2026-05-07 16:07 10.62200 123.85127 14055 ft 322 kts 322°
2026-05-07 16:07 10.63924 123.83581 14331 ft 339 kts 322°
2026-05-07 16:07 10.65740 123.81946 14592 ft 354 kts 321°
2026-05-07 16:08 10.67617 123.80257 14840 ft 369 kts 321°
2026-05-07 16:08 10.69568 123.78500 15071 ft 383 kts 321°
2026-05-07 16:08 10.71603 123.76670 15293 ft 396 kts 321°
2026-05-07 16:08 10.73716 123.74771 15502 ft 409 kts 321°
2026-05-07 16:09 10.75873 123.72832 15696 ft 421 kts 321°
2026-05-07 16:09 10.78126 123.70808 15882 ft 432 kts 321°
2026-05-07 16:09 10.80404 123.68765 16071 ft 442 kts 321°
2026-05-07 16:09 10.82714 123.66690 16398 ft 446 kts 321°
2026-05-07 16:10 10.85031 123.64609 16816 ft 448 kts 321°
2026-05-07 16:10 10.87399 123.62477 17224 ft 450 kts 321°
2026-05-07 16:10 10.89745 123.60367 17614 ft 452 kts 321°
2026-05-07 16:10 10.92100 123.58247 17980 ft 455 kts 321°
2026-05-07 16:11 10.94468 123.56115 18318 ft 457 kts 321°
2026-05-07 16:11 10.96855 123.53968 18647 ft 460 kts 321°
2026-05-07 16:11 10.99315 123.51814 18978 ft 462 kts 323°
2026-05-07 16:11 11.01854 123.49811 19311 ft 463 kts 326°
2026-05-07 16:12 11.04475 123.47936 19711 ft 463 kts 328°
2026-05-07 16:12 11.07142 123.46072 20388 ft 456 kts 328°
2026-05-07 16:12 11.09752 123.44255 20840 ft 456 kts 328°
2026-05-07 16:12 11.12389 123.42419 21182 ft 459 kts 328°
2026-05-07 16:13 11.15016 123.40591 21512 ft 462 kts 328°
2026-05-07 16:13 11.17695 123.38721 21856 ft 464 kts 328°
2026-05-07 16:13 11.20358 123.36863 22193 ft 466 kts 327°
2026-05-07 16:13 11.23041 123.34988 22530 ft 469 kts 327°
2026-05-07 16:14 11.25728 123.33112 22861 ft 471 kts 327°
2026-05-07 16:14 11.28439 123.31216 23201 ft 473 kts 327°
2026-05-07 16:14 11.31184 123.29296 23535 ft 475 kts 327°
2026-05-07 16:14 11.33900 123.27396 23870 ft 477 kts 326°
2026-05-07 16:15 11.36638 123.25479 24204 ft 478 kts 326°
2026-05-07 16:15 11.39408 123.23539 24521 ft 480 kts 326°
2026-05-07 16:15 11.42149 123.21620 24816 ft 481 kts 326°
2026-05-07 16:15 11.44937 123.19667 25109 ft 483 kts 326°
2026-05-07 16:16 11.47698 123.17731 25478 ft 482 kts 326°
2026-05-07 16:16 11.50477 123.15782 25895 ft 480 kts 326°
2026-05-07 16:16 11.53216 123.13862 26276 ft 480 kts 326°
2026-05-07 16:16 11.55976 123.11928 26421 ft 484 kts 326°
2026-05-07 16:17 11.58763 123.09972 26534 ft 489 kts 326°
2026-05-07 16:17 11.61567 123.08004 26738 ft 490 kts 325°
2026-05-07 16:17 11.64376 123.06034 27055 ft 489 kts 325°
2026-05-07 16:17 11.67196 123.04056 27400 ft 487 kts 325°
2026-05-07 16:18 11.69983 123.02100 27856 ft 483 kts 325°
2026-05-07 16:18 11.72742 123.00163 28299 ft 479 kts 324°
2026-05-07 16:18 11.75486 122.98235 28633 ft 478 kts 324°
2026-05-07 16:18 11.78236 122.96303 28923 ft 478 kts 324°
2026-05-07 16:19 11.80959 122.94388 29212 ft 478 kts 324°
2026-05-07 16:19 11.83701 122.92459 29491 ft 478 kts 324°
2026-05-07 16:19 11.86443 122.90531 29691 ft 479 kts 324°
2026-05-07 16:19 11.89173 122.88611 29828 ft 481 kts 324°
2026-05-07 16:20 11.91968 122.86643 29833 ft 482 kts 324°
2026-05-07 16:20 11.97493 122.82753 29839 ft 482 kts 324°
2026-05-07 16:21 12.03014 122.78865 29841 ft 482 kts 324°
2026-05-07 16:21 12.08515 122.74989 29842 ft 482 kts 324°
2026-05-07 16:22 12.14070 122.71074 29844 ft 482 kts 324°
2026-05-07 16:22 12.19567 122.67197 29843 ft 482 kts 324°
2026-05-07 16:23 12.25094 122.63296 29844 ft 482 kts 324°
2026-05-07 16:23 12.30618 122.59394 29847 ft 482 kts 324°
2026-05-07 16:24 12.36143 122.55490 29853 ft 481 kts 324°
2026-05-07 16:24 12.41637 122.51612 29856 ft 481 kts 324°
2026-05-07 16:25 12.47167 122.47706 29859 ft 481 kts 324°
2026-05-07 16:25 12.52661 122.43821 29861 ft 481 kts 324°
2026-05-07 16:26 12.58206 122.39896 29865 ft 481 kts 324°
2026-05-07 16:26 12.63708 122.35999 29862 ft 481 kts 324°
2026-05-07 16:27 12.69224 122.32091 29863 ft 481 kts 324°
2026-05-07 16:27 12.74739 122.28182 29862 ft 481 kts 324°
2026-05-07 16:28 12.80247 122.24275 29860 ft 481 kts 324°
2026-05-07 16:28 12.85736 122.20379 29859 ft 481 kts 324°
2026-05-07 16:29 12.91249 122.16465 29861 ft 481 kts 324°
2026-05-07 16:29 12.96777 122.12537 29860 ft 481 kts 324°
2026-05-07 16:30 13.02281 122.08625 29655 ft 481 kts 324°
2026-05-07 16:30 13.05036 122.06664 29410 ft 479 kts 324°
2026-05-07 16:30 13.07774 122.04717 29011 ft 478 kts 324°
2026-05-07 16:30 13.10472 122.02795 28314 ft 475 kts 324°
2026-05-07 16:31 13.13215 122.00839 27457 ft 475 kts 325°
2026-05-07 16:31 13.15929 121.98905 26524 ft 477 kts 325°
2026-05-07 16:31 13.18648 121.96968 25546 ft 480 kts 326°
2026-05-07 16:31 13.21377 121.95024 24610 ft 481 kts 326°
2026-05-07 16:32 13.24112 121.93076 23938 ft 476 kts 326°
2026-05-07 16:32 13.26825 121.91142 23258 ft 471 kts 326°
2026-05-07 16:32 13.29510 121.89228 22524 ft 469 kts 326°
2026-05-07 16:32 13.32177 121.87327 21842 ft 465 kts 326°
2026-05-07 16:33 13.34814 121.85447 21196 ft 461 kts 326°
2026-05-07 16:33 13.37442 121.83573 20559 ft 456 kts 326°
2026-05-07 16:33 13.40020 121.81734 19938 ft 452 kts 326°
2026-05-07 16:33 13.42597 121.79893 19312 ft 448 kts 326°
2026-05-07 16:34 13.45155 121.78066 18687 ft 444 kts 326°
2026-05-07 16:34 13.47671 121.76268 18148 ft 437 kts 326°
2026-05-07 16:34 13.50126 121.74513 17744 ft 427 kts 326°
2026-05-07 16:34 13.52543 121.72785 17413 ft 420 kts 326°
2026-05-07 16:35 13.54939 121.71073 17140 ft 414 kts 326°
2026-05-07 16:35 13.57276 121.69401 16826 ft 403 kts 326°
2026-05-07 16:35 13.59559 121.67767 16634 ft 395 kts 327°
2026-05-07 16:35 13.61774 121.66180 16367 ft 386 kts 327°
2026-05-07 16:36 13.63956 121.64619 16144 ft 374 kts 327°
2026-05-07 16:36 13.66065 121.63109 15953 ft 361 kts 327°
2026-05-07 16:36 13.68079 121.61638 15718 ft 345 kts 324°
2026-05-07 16:36 13.69887 121.60122 15697 ft 333 kts 320°
2026-05-07 16:37 13.71621 121.58551 15578 ft 330 kts 320°
2026-05-07 16:37 13.73333 121.56984 15364 ft 329 kts 320°
2026-05-07 16:37 13.75049 121.55410 15082 ft 327 kts 320°
2026-05-07 16:37 13.76738 121.53862 14859 ft 326 kts 320°
2026-05-07 16:38 13.78442 121.52301 14633 ft 326 kts 320°
2026-05-07 16:38 13.80129 121.50756 14494 ft 325 kts 320°
2026-05-07 16:38 13.81812 121.49215 14381 ft 325 kts 320°
2026-05-07 16:38 13.83506 121.47663 14270 ft 324 kts 320°
2026-05-07 16:39 13.85198 121.46114 14157 ft 324 kts 320°
2026-05-07 16:39 13.86874 121.44579 14050 ft 323 kts 320°
2026-05-07 16:39 13.88570 121.43025 13936 ft 322 kts 320°
2026-05-07 16:39 13.90233 121.41501 13820 ft 322 kts 320°
2026-05-07 16:40 13.91923 121.39953 13705 ft 322 kts 320°
2026-05-07 16:40 13.93583 121.38431 13595 ft 321 kts 320°
2026-05-07 16:40 13.95268 121.36885 13388 ft 321 kts 320°
2026-05-07 16:40 13.96921 121.35368 13245 ft 320 kts 319°
2026-05-07 16:41 13.98596 121.33832 13130 ft 320 kts 319°
2026-05-07 16:41 14.00264 121.32302 13018 ft 320 kts 319°
2026-05-07 16:41 14.01940 121.30764 12901 ft 320 kts 319°
2026-05-07 16:41 14.03576 121.29238 12759 ft 318 kts 315°
2026-05-07 16:42 14.04937 121.27437 12422 ft 317 kts 300°
2026-05-07 16:42 14.05852 121.25384 12033 ft 317 kts 292°
2026-05-07 16:42 14.06630 121.23268 11660 ft 316 kts 291°
2026-05-07 16:42 14.07391 121.21149 11290 ft 314 kts 291°
2026-05-07 16:43 14.08151 121.19054 10922 ft 313 kts 291°
2026-05-07 16:43 14.08913 121.16979 10556 ft 311 kts 292°
2026-05-07 16:43 14.09689 121.14883 10182 ft 310 kts 292°
2026-05-07 16:43 14.10457 121.12817 9798 ft 309 kts 292°
2026-05-07 16:44 14.11221 121.10770 9418 ft 308 kts 292°
2026-05-07 16:44 14.11992 121.08705 9055 ft 306 kts 292°
2026-05-07 16:44 14.12751 121.06672 8699 ft 305 kts 292°
2026-05-07 16:44 14.13515 121.04623 8330 ft 303 kts 292°
2026-05-07 16:45 14.14272 121.02593 7858 ft 306 kts 292°
2026-05-07 16:45 14.15036 121.00548 7444 ft 306 kts 292°
2026-05-07 16:45 14.15797 120.98507 7067 ft 304 kts 292°
2026-05-07 16:45 14.16541 120.96510 6912 ft 293 kts 293°
2026-05-07 16:46 14.17468 120.94686 6792 ft 277 kts 314°
2026-05-07 16:46 14.18940 120.93482 6513 ft 268 kts 333°
2026-05-07 16:46 14.20564 120.92557 6203 ft 265 kts 335°
2026-05-07 16:46 14.22162 120.91663 6037 ft 257 kts 334°
2026-05-07 16:47 14.23691 120.90788 5867 ft 250 kts 334°
2026-05-07 16:47 14.25211 120.89904 5630 ft 246 kts 334°
2026-05-07 16:47 14.26697 120.89032 5397 ft 241 kts 334°
2026-05-07 16:47 14.28138 120.88184 5199 ft 235 kts 334°
2026-05-07 16:48 14.29570 120.87355 4953 ft 234 kts 334°
2026-05-07 16:48 14.31009 120.86529 4695 ft 233 kts 334°
2026-05-07 16:48 14.32410 120.85722 4433 ft 233 kts 334°
2026-05-07 16:48 14.33830 120.84901 4100 ft 228 kts 334°
2026-05-07 16:49 14.35184 120.84115 3815 ft 219 kts 334°
2026-05-07 16:49 14.36498 120.83353 3552 ft 214 kts 334°
2026-05-07 16:49 14.37790 120.82633 3359 ft 205 kts 342°
2026-05-07 16:49 14.39128 120.82523 3096 ft 189 kts 19°
2026-05-07 16:50 14.40173 120.83198 3008 ft 166 kts 48°
2026-05-07 16:50 14.40861 120.84084 2987 ft 149 kts 58°
2026-05-07 16:50 14.41417 120.84977 2995 ft 148 kts 60°
2026-05-07 16:50 14.41941 120.85880 2952 ft 148 kts 62°
2026-05-07 16:51 14.42463 120.86805 2800 ft 148 kts 62°
2026-05-07 16:51 14.42972 120.87717 2613 ft 147 kts 62°
2026-05-07 16:51 14.43481 120.88635 2418 ft 146 kts 62°
2026-05-07 16:51 14.43986 120.89551 2224 ft 146 kts 61°
2026-05-07 16:52 14.44492 120.90466 2033 ft 146 kts 62°
2026-05-07 16:52 14.44994 120.91372 1845 ft 145 kts 63°
2026-05-07 16:52 14.45490 120.92270 1663 ft 145 kts 61°
2026-05-07 16:52 14.45991 120.93173 1477 ft 145 kts 63°
2026-05-07 16:53 14.46491 120.94075 1298 ft 144 kts 63°
2026-05-07 16:53 14.46995 120.94977 1112 ft 144 kts 62°
2026-05-07 16:53 14.47506 120.95856 921 ft 143 kts 61°
2026-05-07 16:53 14.47993 120.96758 727 ft 143 kts 63°
2026-05-07 16:54 14.48493 120.97643 569 ft 143 kts 63°
2026-05-07 16:54 14.48957 120.98556 387 ft 142 kts 62°
2026-05-07 16:54 14.49463 120.99435 208 ft 143 kts 62°
2026-05-07 16:54 14.49962 121.00331 54 ft 143 kts 62°
2026-05-07 16:55 14.50417 121.01151 36 ft 111 kts 61°
2026-05-07 16:55 14.50675 121.01613 48 ft 38 kts 52°
2026-05-07 16:55 14.50820 121.01762 51 ft 18 kts 38°
2026-05-07 16:55 14.50879 121.01788 51 ft 5 kts 341°
2026-05-07 16:56 14.50914 121.01765 52 ft 5 kts 325°
2026-05-07 16:56 14.50940 121.01739 53 ft 5 kts 306°
2026-05-07 16:56 14.50956 121.01690 55 ft 2 kts 247°
2026-05-07 16:57 14.50947 121.01670 56 ft 3 kts 243°
2026-05-07 16:57 14.50929 121.01636 58 ft 7 kts 241°
2026-05-07 16:57 14.50895 121.01575 59 ft 11 kts 239°
2026-05-07 16:57 14.50855 121.01507 59 ft 11 kts 242°
2026-05-07 16:58 14.50840 121.01453 58 ft 6 kts 294°
2026-05-07 16:58 14.50864 121.01437 60 ft 1 kts 335°
2026-05-07 16:58 14.50877 121.01431 61 ft 3 kts 333°
2026-05-07 16:58 14.50897 121.01420 63 ft 2 kts 331°
2026-05-07 16:59 14.50906 121.01414 63 ft 0 kts 331°
2026-05-07 16:59 14.50911 121.01411 64 ft 0 kts 331°